Wind_Speed
29 30 30 31 31 32 33 33 33 30 29 27 30 33 34 33 32 32 33 33 34 34 35 35 37 38 39 40 41 42 44 45 46 47 48 49 50 51 51 52 54 54 55 56
30 30 30 32 31 31 31 31 31 31 29 27 30 32 33 33 34 34 34 35 35 35 36 37 37 39 40 41 42 44 45 46 47 48 48 49 50 51 52 53 54 55 56 56
30 30 32 33 28 29 29 29 30 31 28 29 31 33 34 35 35 35 35 35 35 36 36 37 38 40 41 43 44 45 46 46 47 48 49 50 51 52 52 53 54 55 56 57
32 32 34 28 26 27 28 28 29 30 29 30 32 34 34 35 35 35 35 35 35 36 37 39 40 41 43 44 45 45 46 46 47 48 49 50 51 52 53 54 55 56 57 59
33 33 32 28 25 26 29 29 28 29 30 32 34 34 34 34 35 35 36 36 37 38 39 40 41 42 43 44 45 45 46 47 48 49 49 50 51 53 53 55 56 57 59 62
34 33 32 26 25 27 29 29 26 29 30 31 32 33 33 33 34 35 36 37 38 39 40 41 42 43 44 44 45 45 46 47 48 49 50 51 52 53 54 56 58 60 62 65
33 32 30 26 26 27 29 27 27 29 30 31 31 32 32 33 35 35 36 37 39 40 41 42 43 43 44 44 45 45 46 47 48 49 50 51 53 54 56 58 61 63 66 68
33 34 29 27 28 28 28 28 29 29 30 30 31 32 33 34 35 36 37 38 39 40 41 42 43 43 44 44 44 45 45 47 48 49 51 52 54 56 59 62 64 67 70 72
34 32 30 29 29 29 29 29 30 30 30 31 31 32 33 34 35 36 38 39 40 41 41 42 42 43 43 43 44 45 46 47 48 50 52 54 57 59 62 65 68 71 74 75
34 32 31 31 31 31 31 31 31 30 30 31 32 32 33 34 35 37 38 39 39 40 41 41 42 42 42 43 44 45 46 48 50 52 54 57 59 62 66 69 72 74 76 79
34 32 32 32 32 32 32 32 32 32 32 32 33 33 34 35 36 37 38 38 39 39 40 41 41 42 42 43 45 46 48 50 52 54 57 60 63 66 69 72 75 77 80 82
33 32 33 32 32 33 32 33 33 33 33 33 34 34 35 36 36 37 37 38 38 39 40 40 41 42 43 44 46 48 50 52 55 57 60 63 66 69 71 74 77 79 82 83
34 34 34 33 33 33 33 34 34 34 34 34 34 34 35 36 36 37 37 38 39 39 39 40 42 43 44 46 48 50 53 55 58 61 64 67 70 73 74 76 78 80 82 83
34 34 34 34 34 34 34 34 34 34 34 34 34 34 35 36 36 37 37 38 38 39 40 42 43 45 47 48 51 53 56 59 62 65 68 71 74 76 78 80 80 80 80 80
35 35 35 35 35 35 34 34 33 33 33 34 34 35 35 36 36 37 37 38 39 40 42 43 45 47 49 51 54 56 59 62 65 68 71 74 76 78 80 82 82 81 78 76
36 36 35 34 34 34 33 33 33 33 33 33 34 35 35 36 36 37 38 39 40 42 43 45 47 49 52 54 57 60 62 65 68 71 74 76 79 81 82 83 82 79 76 72
35 34 34 33 33 32 32 32 32 33 33 33 34 35 35 36 36 37 39 41 42 44 46 48 50 52 55 58 60 63 66 68 72 75 77 79 81 83 83 81 79 75 71 67
33 33 32 32 31 31 31 31 32 32 33 33 34 35 35 36 38 39 41 43 44 47 49 51 53 56 58 61 64 66 69 72 75 78 80 82 83 82 80 78 74 70 65 60
31 31 31 31 30 30 30 31 31 32 33 34 34 35 37 38 40 41 43 45 47 49 51 53 56 59 61 64 67 69 73 76 78 80 82 82 81 79 76 72 68 64 60 56
29 29 29 29 29 29 30 31 32 32 33 34 36 37 39 40 42 44 45 47 49 51 54 56 59 62 64 67 70 73 77 79 81 81 81 80 77 74 70 67 63 59 55 51
28 29 29 29 29 30 30 31 32 33 34 36 37 39 41 42 44 46 47 49 51 54 56 59 62 64 67 70 74 77 80 81 81 80 78 76 72 68 65 61 57 53 49 46
28 28 29 29 30 31 32 33 34 35 36 38 40 41 43 44 46 47 49 52 54 57 59 62 65 68 71 74 78 80 81 80 79 76 74 70 67 63 60 55 51 47 45 42
28 29 30 30 31 32 33 34 35 37 38 40 42 43 45 46 48 49 51 54 57 60 62 65 68 72 75 78 80 80 79 77 74 71 68 64 61 58 54 50 46 44 42 39
30 30 31 32 33 34 35 36 37 39 40 42 43 45 46 47 49 52 54 57 60 62 65 68 72 75 78 80 79 77 74 72 69 65 62 59 56 53 49 46 43 41 38 35
31 32 33 34 35 36 37 38 39 41 42 43 44 46 47 49 51 54 57 60 62 65 68 72 76 78 78 77 75 73 70 66 63 60 57 54 51 48 45 42 39 36 34 31
33 34 35 36 36 38 39 40 41 42 42 43 45 47 49 51 54 57 60 62 65 68 72 75 76 76 75 73 71 67 63 60 58 55 52 49 46 43 40 37 35 32 30 28
34 35 35 36 37 38 39 40 41 42 43 44 46 49 51 54 57 60 62 65 68 72 74 74 74 72 71 68 64 61 58 55 52 50 47 44 41 38 35 32 30 28 26 24
Wind_Direction
247 249 250 252 253 254 257 262 264 266 266 268 266 267 268 269 270 271 271 273 275 276 277 279 281 283 285 287 290 292 294 295 296 296 297 298 299 300 301 302 302 302 303 303
246 249 251 252 252 254 258 261 264 266 267 266 265 267 269 271 272 273 275 276 278 278 280 282 284 286 288 290 292 293 295 296 296 297 298 299 300 301 301 302 303 303 303 303
245 248 251 252 255 257 260 262 264 266 268 266 266 268 270 271 273 276 277 278 280 281 282 284 287 288 290 292 293 294 295 296 297 298 299 300 301 301 302 303 303 304 304 304
244 247 251 256 254 256 259 261 264 267 268 269 269 269 271 273 274 276 278 280 281 283 285 287 289 290 292 293 295 296 296 297 298 299 300 301 302 302 303 303 304 304 305 305
245 249 253 254 256 258 259 260 265 268 269 270 270 271 272 274 276 278 280 282 284 286 288 289 291 292 294 295 296 297 297 298 299 300 300 301 302 303 304 305 305 306 306 306
246 250 254 256 257 258 261 263 266 268 269 270 272 274 275 276 278 280 282 284 286 288 290 291 293 294 295 296 297 297 298 299 299 300 301 302 303 304 305 306 306 307 307 307
248 252 255 258 258 259 262 267 266 267 270 273 275 276 277 277 279 281 283 286 288 290 291 293 294 295 296 297 297 298 298 299 301 302 303 304 304 305 306 307 307 307 308 308
247 251 255 259 260 261 265 266 269 270 271 273 275 276 277 279 281 283 285 288 290 292 293 294 295 296 297 297 298 299 300 301 302 303 304 305 306 307 307 308 308 308 308 309
248 252 255 257 261 263 266 269 271 273 274 274 276 277 279 281 283 285 288 290 291 293 294 295 295 296 297 298 299 301 302 303 304 305 306 306 307 308 308 308 309 309 309 309
246 250 254 257 261 265 267 270 272 274 275 277 279 280 282 284 286 288 290 291 293 294 294 295 296 297 298 300 301 302 303 304 305 306 307 307 308 309 309 309 309 310 310 310
246 250 254 258 261 264 267 270 273 275 277 279 281 283 285 287 289 290 292 293 294 295 296 297 298 299 300 302 303 304 305 306 306 307 308 308 309 310 310 310 311 311 311 311
247 250 254 256 260 265 269 272 275 278 279 281 283 285 287 288 290 291 292 294 295 296 297 298 299 300 302 303 304 305 306 307 307 308 308 309 310 310 311 311 311 312 312 312
247 249 253 257 261 265 269 273 276 279 281 283 285 286 288 289 290 291 293 295 296 297 298 299 300 302 303 304 305 306 306 307 308 309 309 310 310 311 311 311 312 312 312 312
248 251 254 258 262 266 270 274 277 280 282 283 285 287 288 289 290 292 294 296 297 298 299 301 302 303 304 305 306 306 307 308 309 310 310 310 311 311 312 312 312 312 312 311
250 253 257 260 264 268 271 274 277 279 282 284 285 287 288 290 291 293 295 296 298 299 300 302 303 304 305 306 306 307 308 308 309 310 311 311 312 312 312 313 313 313 312 311
251 255 260 264 267 269 272 274 277 279 281 283 285 287 289 291 292 294 296 297 299 300 301 302 303 304 305 306 307 307 308 309 310 311 311 312 312 312 313 313 313 313 313 312
253 258 262 265 267 270 272 275 277 280 282 284 286 288 289 291 293 295 297 298 299 301 302 303 304 305 306 306 307 308 309 310 311 311 312 312 312 313 313 313 313 313 313 312
255 259 262 265 268 270 273 276 278 280 283 285 287 289 291 292 294 296 297 299 300 301 302 303 304 305 306 307 308 309 310 310 311 312 312 312 313 313 313 313 313 313 312 312
256 259 262 265 268 270 273 276 278 281 283 285 287 289 291 293 295 296 298 299 300 301 303 303 304 306 307 308 309 310 310 311 312 312 312 313 313 313 313 313 313 312 312 311
255 258 261 265 268 271 275 278 280 282 284 286 288 290 292 294 295 297 298 299 300 302 303 304 305 306 308 308 310 311 311 312 312 312 313 313 313 313 313 312 312 312 311 311
257 259 262 266 270 273 276 279 281 283 285 287 289 291 292 294 296 297 298 299 301 302 304 305 306 307 308 310 311 311 312 312 312 313 313 313 313 313 313 312 312 312 311 311
259 262 265 269 272 275 278 280 282 284 286 288 290 292 293 295 296 297 299 300 302 303 305 306 307 309 310 311 311 312 312 312 313 313 313 313 313 313 313 313 312 311 311 311
261 264 267 270 273 276 279 281 283 285 287 289 291 293 294 295 297 298 300 301 303 305 306 307 309 310 311 312 312 312 313 313 313 313 313 314 314 314 314 313 312 311 311 310
263 266 269 272 274 277 279 282 284 286 287 289 291 293 294 296 297 299 301 303 305 306 308 309 310 311 312 312 313 313 313 313 313 313 314 314 314 314 313 313 312 312 311 311
265 268 271 274 276 278 280 282 285 286 288 290 292 293 295 297 299 301 303 305 307 308 309 310 311 312 313 313 313 313 313 313 313 314 314 314 314 314 314 313 312 312 312 311
268 270 272 275 277 279 281 283 285 287 289 290 292 295 297 299 301 303 305 307 308 309 311 312 312 313 313 313 313 313 313 313 314 314 315 315 315 314 314 314 314 313 313 312
269 271 273 275 277 280 282 284 286 287 290 292 294 297 299 301 303 305 307 308 309 310 312 312 313 313 314 314 314 313 314 314 315 315 315 315 314 314 314 314 314 314 314 313
Height
5702 5704 5706 5707 5709 5709 5710 5712 5713 5715 5716 5718 5717 5715 5715 5716 5716 5716 5716 5716 5715 5714 5713 5711 5709 5707 5705 5702 5700 5696 5693 5689 5685 5680 5676 5671 5666 5661 5656 5650 5644 5639 5633 5626
5695 5697 5698 5699 5701 5703 5704 5705 5706 5707 5709 5711 5708 5708 5708 5708 5708 5708 5708 5707 5706 5705 5704 5702 5700 5698 5695 5693 5689 5686 5682 5678 5673 5669 5664 5659 5654 5649 5643 5638 5632 5626 5619 5613
5688 5689 5690 5692 5696 5697 5698 5699 5699 5700 5703 5702 5701 5701 5700 5700 5700 5700 5699 5699 5698 5696 5695 5693 5691 5688 5685 5682 5679 5675 5671 5666 5662 5657 5652 5647 5642 5637 5631 5625 5619 5613 5606 5599
5680 5682 5682 5690 5690 5690 5691 5692 5692 5693 5694 5694 5693 5693 5693 5692 5692 5691 5691 5690 5689 5687 5685 5683 5681 5678 5675 5672 5668 5664 5660 5655 5650 5646 5641 5635 5630 5624 5618 5612 5606 5599 5592 5585
5672 5674 5676 5681 5684 5684 5683 5685 5686 5686 5686 5685 5684 5684 5685 5684 5684 5683 5682 5681 5680 5678 5676 5673 5671 5668 5664 5661 5657 5652 5648 5643 5639 5634 5628 5623 5617 5611 5605 5599 5592 5585 5578 5570
5665 5667 5670 5676 5677 5676 5677 5677 5680 5678 5677 5677 5677 5677 5678 5676 5676 5674 5673 5672 5670 5668 5666 5663 5660 5657 5653 5649 5645 5641 5637 5632 5627 5622 5616 5611 5605 5598 5592 5585 5578 5571 5563 5555
5659 5660 5663 5668 5669 5669 5670 5672 5671 5670 5670 5670 5670 5670 5669 5668 5667 5666 5664 5662 5660 5658 5655 5652 5649 5646 5642 5638 5634 5630 5625 5620 5615 5609 5604 5598 5592 5585 5578 5571 5564 5557 5549 5540
5651 5653 5659 5661 5660 5662 5663 5662 5663 5662 5662 5662 5662 5661 5660 5659 5658 5657 5655 5653 5651 5648 5645 5642 5638 5635 5631 5627 5623 5618 5613 5608 5603 5597 5591 5585 5578 5571 5564 5556 5548 5540 5531 5523
5645 5649 5651 5652 5653 5653 5654 5655 5655 5654 5655 5654 5654 5653 5652 5651 5649 5648 5646 5643 5640 5638 5634 5631 5628 5624 5620 5616 5611 5607 5601 5596 5590 5584 5578 5571 5564 5557 5549 5540 5531 5522 5513 5504
5637 5640 5643 5644 5644 5645 5646 5646 5646 5647 5647 5646 5646 5645 5644 5642 5640 5638 5636 5633 5630 5627 5624 5620 5617 5613 5609 5605 5600 5595 5590 5584 5578 5572 5565 5558 5550 5542 5533 5524 5514 5504 5493 5483
5629 5633 5634 5635 5636 5637 5638 5638 5638 5638 5638 5638 5637 5636 5635 5633 5631 5628 5626 5623 5620 5617 5614 5610 5606 5602 5598 5593 5589 5583 5578 5572 5565 5558 5551 5544 5536 5526 5517 5507 5494 5484 5473 5462
5623 5626 5626 5628 5628 5629 5629 5630 5630 5630 5630 5629 5628 5627 5625 5623 5621 5618 5616 5613 5610 5607 5603 5599 5595 5591 5587 5582 5577 5571 5566 5559 5552 5545 5537 5529 5520 5512 5501 5490 5479 5465 5452 5439
5614 5616 5617 5619 5620 5621 5621 5621 5622 5621 5621 5620 5619 5617 5616 5613 5611 5609 5606 5603 5600 5596 5592 5588 5584 5580 5575 5570 5565 5559 5552 5545 5538 5530 5522 5513 5503 5494 5486 5477 5463 5449 5435 5421
5605 5607 5609 5611 5612 5613 5613 5613 5613 5613 5612 5611 5609 5608 5606 5604 5601 5599 5596 5593 5589 5586 5582 5578 5573 5568 5563 5558 5552 5545 5538 5531 5523 5515 5505 5496 5485 5475 5464 5454 5446 5436 5421 5404
5597 5599 5601 5602 5603 5604 5604 5605 5604 5604 5603 5602 5600 5598 5596 5594 5592 5589 5586 5583 5579 5575 5571 5566 5562 5556 5551 5545 5538 5531 5524 5516 5507 5498 5488 5478 5467 5456 5444 5433 5422 5412 5402 5389
5588 5590 5592 5593 5595 5595 5596 5596 5595 5595 5594 5592 5591 5589 5587 5584 5582 5579 5576 5572 5568 5564 5560 5555 5550 5544 5538 5531 5525 5517 5509 5500 5490 5481 5471 5460 5448 5437 5425 5413 5401 5390 5379 5369
5580 5582 5583 5585 5586 5586 5587 5587 5586 5585 5584 5583 5581 5579 5577 5574 5572 5569 5565 5561 5557 5553 5548 5543 5537 5531 5524 5517 5510 5502 5493 5484 5473 5463 5452 5441 5429 5417 5405 5393 5381 5371 5361 5350
5572 5574 5575 5576 5577 5577 5578 5577 5577 5576 5575 5573 5571 5569 5567 5564 5561 5558 5554 5550 5546 5541 5535 5530 5524 5517 5510 5502 5494 5486 5476 5467 5456 5445 5433 5422 5409 5397 5385 5374 5363 5353 5344 5335
5564 5566 5567 5568 5568 5568 5568 5568 5567 5566 5565 5563 5561 5559 5557 5554 5551 5547 5543 5538 5534 5529 5523 5516 5510 5503 5495 5486 5478 5469 5459 5448 5438 5426 5414 5402 5390 5378 5366 5355 5345 5336 5327 5320
5556 5557 5558 5559 5560 5560 5559 5559 5558 5557 5555 5553 5551 5549 5546 5543 5539 5535 5531 5526 5521 5516 5509 5502 5495 5488 5479 5470 5461 5451 5440 5429 5418 5406 5394 5383 5371 5360 5349 5339 5329 5321 5313 5305
5548 5549 5550 5550 5551 5551 5550 5549 5548 5547 5545 5543 5541 5538 5535 5531 5527 5523 5518 5513 5507 5501 5495 5487 5480 5472 5463 5454 5444 5433 5421 5410 5398 5386 5375 5364 5353 5342 5333 5323 5314 5306 5299 5293
5539 5540 5541 5542 5542 5541 5540 5539 5538 5536 5535 5532 5530 5527 5523 5519 5515 5510 5505 5500 5494 5487 5480 5472 5464 5455 5445 5436 5425 5414 5402 5390 5378 5367 5356 5345 5335 5326 5317 5308 5301 5294 5287 5282
5531 5532 5532 5532 5532 5531 5530 5529 5528 5526 5524 5521 5518 5515 5511 5507 5502 5498 5493 5486 5479 5472 5465 5456 5447 5437 5427 5417 5405 5394 5382 5371 5360 5349 5339 5329 5320 5311 5303 5295 5289 5282 5276 5271
5522 5522 5523 5522 5522 5521 5520 5519 5517 5515 5512 5509 5506 5502 5499 5494 5489 5484 5478 5472 5464 5457 5448 5439 5429 5419 5408 5397 5386 5374 5363 5353 5342 5333 5323 5314 5306 5297 5290 5283 5277 5271 5266 5261
5512 5512 5513 5512 5512 5510 5509 5507 5505 5503 5500 5497 5493 5490 5486 5481 5476 5470 5464 5456 5449 5441 5432 5422 5411 5400 5389 5377 5367 5356 5346 5336 5326 5318 5309 5301 5293 5285 5278 5272 5266 5261 5257 5253
5502 5502 5502 5501 5500 5499 5498 5496 5493 5491 5488 5484 5481 5477 5472 5467 5462 5456 5449 5441 5432 5423 5414 5404 5393 5381 5370 5360 5349 5339 5330 5321 5312 5304 5296 5288 5281 5274 5268 5262 5257 5253 5249 5245
5491 5491 5491 5490 5489 5488 5486 5484 5481 5479 5475 5472 5468 5464 5459 5453 5447 5440 5433 5425 5416 5406 5396 5385 5374 5364 5353 5343 5333 5324 5315 5307 5299 5291 5284 5277 5271 5265 5259 5254 5249 5245 5242 5239